Temp_Advection
nan nan nan nan nan nan nan nan nan nan nan nan nan nan nan nan nan nan nan nan nan nan nan nan nan nan nan nan nan nan nan nan nan nan nan nan nan nan nan nan nan nan nan nan nan nan nan nan nan
nan 0 -0 -0 -0 -1 -1 0 -0 -0 -0 0 0 0 -0 1 0 -0 0 0 1 1 1 1 0 0 0 0 0 0 0 0 0 0 0 0 -0 -0 -0 -0 -0 -0 0 0 0 0 0 0 nan
nan 0 -0 -0 -0 -1 0 0 0 1 0 0 -0 -0 0 0 0 -0 -0 0 0 1 0 0 0 0 0 0 0 0 0 0 0 0 0 0 0 -0 0 0 -0 -0 -0 -0 0 0 0 0 nan
nan -0 -0 -0 -1 -0 0 0 0 0 -0 -0 0 -0 0 0 0 -0 0 1 1 0 0 0 0 0 0 0 0 0 0 0 0 0 0 0 0 0 0 0 -0 -0 0 0 -0 0 0 0 nan
nan -0 -0 -0 -1 -0 1 0 0 0 -0 -0 0 0 0 0 0 0 1 1 1 0 0 0 0 0 0 0 0 0 0 0 0 0 0 0 0 0 0 0 0 -0 -0 0 0 0 0 0 nan
nan -0 -0 -1 -1 0 1 0 -0 -0 -0 -0 -0 -0 0 0 0 0 1 0 0 0 0 0 0 0 0 0 0 0 0 0 0 0 0 0 0 0 0 0 0 0 0 0 0 0 0 0 nan
nan -0 -1 -0 -0 1 0 0 -1 -0 -0 0 0 -0 -0 0 0 0 0 0 -0 0 0 0 0 0 0 0 0 0 0 0 -0 -0 -0 -0 0 0 0 0 0 0 0 0 0 0 0 0 nan
nan -0 -0 0 -0 -0 0 -0 0 1 1 1 0 0 0 0 0 0 0 0 -0 0 0 0 0 0 0 0 1 0 0 0 1 0 0 0 0 0 0 -0 0 0 0 0 0 -0 0 0 nan
nan -0 -0 -0 -2 0 0 -0 0 0 1 0 1 0 1 0 1 1 1 0 0 0 0 0 -0 -0 0 0 0 0 0 0 0 0 0 0 0 0 0 0 -0 -0 -0 -0 0 0 0 0 nan
nan -0 -1 -1 -0 1 0 0 -0 -0 0 -0 -0 0 0 1 1 1 1 0 0 0 1 0 0 -0 -0 -0 0 1 0 0 -0 -0 -0 -0 -0 0 -0 0 0 -0 -0 -0 -0 0 0 0 nan
nan -1 -0 1 1 1 0 0 0 -0 -0 -0 0 -0 -0 0 -0 1 1 1 1 0 0 0 1 0 0 -0 0 0 0 0 0 0 0 -0 -0 -0 -0 0 0 0 0 0 0 0 0 0 nan
nan -1 -0 1 1 0 0 0 -0 -0 0 0 0 -0 -0 1 2 2 1 1 1 1 -0 0 0 0 0 0 0 0 0 0 0 0 0 0 0 0 0 0 0 0 0 0 0 0 0 0 nan
nan 0 1 0 0 0 0 0 0 1 1 1 0 0 0 0 1 1 0 0 0 0 1 0 0 0 0 0 0 0 0 0 0 0 0 0 0 0 0 0 0 0 0 0 0 0 0 0 nan
nan 0 -1 0 0 -0 0 0 1 0 1 0 1 1 0 -0 0 -1 -0 0 0 1 1 0 1 0 0 0 1 0 0 0 1 0 0 0 0 0 0 0 0 0 0 0 0 0 0 0 nan
nan -0 -0 -0 -0 0 0 -0 -0 0 1 0 0 0 1 1 -0 -1 1 1 1 1 0 1 0 0 1 1 1 1 1 0 1 1 0 0 0 0 0 0 0 0 0 0 0 0 0 0 nan
nan 0 -0 -0 -0 0 0 -1 -0 0 0 0 -0 0 0 0 1 2 1 0 1 1 1 1 0 1 0 1 1 1 0 0 1 1 0 0 0 0 0 0 0 0 0 0 0 0 0 0 nan
nan 0 -1 -1 0 0 0 -1 -0 0 0 -0 -0 0 1 1 2 1 0 0 1 1 1 1 1 0 1 1 1 1 1 1 1 0 0 0 0 0 0 0 0 0 0 0 0 1 0 0 nan
nan -1 -1 0 -0 1 -0 -1 -0 1 1 0 1 2 2 1 1 1 1 1 1 1 1 1 0 1 1 1 1 1 1 1 1 1 1 1 0 0 0 0 0 0 0 0 1 0 0 1 nan
nan 0 0 0 0 0 -1 -0 1 0 0 1 1 1 2 2 1 1 1 1 1 1 1 0 1 1 1 2 1 1 1 1 1 1 1 1 0 0 0 0 0 0 0 0 0 1 0 0 nan
nan 0 0 0 0 -0 -0 0 0 1 1 1 1 1 1 1 1 1 1 1 0 1 1 1 1 1 1 1 1 1 1 1 1 1 1 0 1 0 0 0 0 0 0 0 0 0 1 0 nan
nan 0 1 1 1 0 0 0 0 1 0 0 0 0 0 0 1 1 1 1 1 1 1 1 1 1 1 0 1 2 0 0 1 1 1 0 1 1 1 0 0 0 0 0 1 0 0 1 nan
nan -0 1 1 1 0 0 -0 -0 1 -0 -0 0 0 0 0 1 0 1 1 1 1 1 1 1 1 1 1 2 0 0 1 1 0 1 1 1 1 1 1 1 0 0 1 1 1 0 1 nan
nan -0 0 -0 0 0 0 -0 0 0 1 1 0 0 0 0 0 0 0 1 1 1 0 1 1 1 1 1 1 -0 1 1 0 0 1 1 1 1 1 1 1 0 1 1 1 1 1 0 nan
nan 0 -0 0 0 -0 -1 -0 1 1 1 0 0 0 0 0 0 0 1 1 0 1 1 1 1 1 2 1 1 1 1 1 1 1 1 1 1 1 1 1 0 1 1 1 0 0 1 0 nan
nan 0 -0 0 -0 -0 1 1 -0 -0 -0 0 0 0 0 1 1 1 1 0 0 1 1 1 1 1 2 1 2 2 1 1 1 1 0 1 1 1 0 0 1 1 1 1 0 1 0 0 nan
nan 0 0 0 0 -0 0 1 0 -0 0 0 0 0 1 1 1 1 1 1 1 1 1 1 1 1 1 1 1 1 1 1 1 1 1 1 0 0 0 0 1 0 0 0 0 0 0 0 nan
nan 0 -0 0 -0 0 -0 -1 -0 -0 -0 -0 -0 -0 0 1 1 1 1 1 1 1 1 1 1 1 1 1 1 1 1 1 1 1 1 0 0 0 1 1 1 0 0 0 0 0 0 0 nan
nan 0 0 -0 -0 0 -0 -0 -0 -0 -0 -0 -0 -0 0 1 1 1 1 1 1 1 1 1 1 1 1 1 0 1 1 1 1 0 0 0 0 0 0 1 0 0 0 0 0 0 0 0 nan
nan 0 -0 -0 -0 0 -0 -0 -0 0 -0 -0 -0 -0 -0 0 1 1 1 1 1 1 1 1 1 1 1 1 0 0 0 0 0 0 0 0 0 0 0 0 0 0 0 0 0 0 0 0 nan
nan nan nan nan nan nan nan nan nan nan nan nan nan nan nan nan nan nan nan nan nan nan nan nan nan nan nan nan nan nan nan nan nan nan nan nan nan nan nan nan nan nan nan nan nan nan nan nan nan
Wind_Speed
12 12 16 11 6 5 14 8 2 5 5 10 5 12 11 11 9 2 2 17 21 28 27 26 24 23 21 19 18 19 19 17 16 15 14 15 16 17 17 18 15 17 20 20 20 21 19 19 21
15 16 12 5 7 11 12 12 11 8 3 5 8 9 7 14 4 2 4 17 26 27 26 25 24 23 22 20 19 19 18 18 16 15 16 17 19 20 19 18 15 14 14 19 20 18 18 19 19
18 17 9 4 8 16 8 9 12 10 6 7 9 7 5 3 6 5 6 20 28 27 24 24 24 22 20 20 19 19 18 18 17 17 19 20 20 21 20 16 15 16 19 19 18 18 15 17 18
16 9 2 8 18 14 6 2 3 8 8 8 6 5 4 8 3 11 11 24 28 25 24 25 23 22 20 20 19 19 18 17 18 19 20 20 20 19 18 10 10 14 17 17 17 17 15 14 15
15 8 9 11 24 12 13 3 5 6 9 10 9 4 3 7 8 11 18 28 24 25 25 24 23 22 21 20 19 19 19 20 20 20 19 19 19 19 13 10 12 13 15 17 17 15 16 16 15
12 8 9 18 25 21 12 16 9 8 6 6 9 5 4 5 10 13 24 28 22 26 24 23 21 19 19 19 20 20 20 22 22 22 22 20 19 16 14 14 15 15 15 14 14 15 16 16 14
17 10 20 19 21 23 13 15 16 13 12 11 3 6 3 11 14 16 26 27 24 27 25 23 23 19 18 19 22 23 24 26 28 28 29 27 26 22 19 20 18 14 13 11 11 14 15 14 12
18 7 19 15 20 26 6 14 13 26 24 11 9 7 8 11 16 22 30 27 28 29 26 26 23 24 22 24 26 27 27 26 25 22 22 21 19 19 20 21 20 18 14 13 13 13 15 13 11
15 10 16 21 25 16 9 15 10 6 14 10 11 10 11 17 22 27 33 32 31 31 30 29 29 26 25 28 29 28 26 24 22 19 16 16 16 16 15 16 19 18 16 15 11 10 14 11 12
16 16 24 20 21 12 14 15 13 9 13 9 9 17 12 17 27 33 37 38 36 35 33 32 31 32 31 30 29 30 26 24 17 13 12 7 14 14 13 12 11 9 7 6 6 10 13 11 10
23 22 25 27 23 19 15 15 14 11 11 14 17 16 15 14 27 33 32 30 40 37 35 35 34 33 29 28 29 27 26 21 17 13 10 7 9 10 11 10 10 10 8 8 8 10 11 12 10
16 31 24 28 20 17 16 17 14 18 14 7 8 12 16 19 25 34 34 33 39 37 34 35 36 34 33 30 28 26 22 20 16 16 14 8 9 7 8 10 10 10 10 10 11 12 13 12 10
22 19 27 24 25 18 20 21 16 20 18 11 13 11 11 17 20 26 34 36 39 38 34 35 35 33 30 28 25 23 21 19 16 16 15 14 8 5 6 8 9 10 11 12 13 13 13 13 12
13 20 20 24 28 18 19 19 19 20 19 15 16 16 15 16 19 24 35 38 40 38 36 32 29 31 28 27 26 24 21 24 22 17 17 12 8 7 5 7 10 11 12 13 14 14 14 13 13
28 9 20 23 18 16 19 25 27 27 24 21 18 17 18 17 19 22 31 38 41 38 39 37 38 28 27 27 25 25 22 23 21 20 16 13 11 10 8 9 11 12 12 13 14 15 15 15 15
21 21 21 14 22 15 18 28 24 27 28 24 26 22 19 24 26 21 24 34 41 42 38 36 30 34 29 29 25 30 29 30 22 21 15 16 13 8 8 10 12 14 14 15 16 16 16 16 15
15 17 23 22 20 15 23 18 19 13 30 34 36 33 27 22 24 24 27 29 40 42 42 40 37 34 32 35 28 34 29 25 23 22 18 15 12 8 8 10 12 13 14 16 16 17 17 16 15
19 22 20 24 21 22 19 22 13 15 22 27 28 26 23 20 24 25 28 31 38 41 41 39 38 38 35 35 37 29 30 26 27 22 20 18 15 11 9 13 12 13 14 15 16 16 17 16 15
17 19 22 17 12 21 26 22 18 11 13 14 15 16 20 21 15 20 25 35 38 40 41 40 40 37 36 37 35 33 34 28 27 22 20 17 14 14 12 12 13 15 15 15 16 17 15 18 19
18 17 20 6 9 15 18 22 20 16 8 10 12 11 12 13 18 20 23 34 36 40 41 40 38 37 35 28 37 40 33 29 28 26 23 20 17 15 13 11 12 13 15 15 15 14 17 16 16
12 22 17 13 12 10 10 14 15 10 7 6 4 6 8 10 14 20 26 32 36 37 40 40 38 35 34 28 38 34 33 33 28 26 24 22 20 17 16 12 12 13 15 15 16 16 15 16 17
15 10 12 10 14 7 15 7 18 15 12 10 9 6 6 9 12 16 26 33 35 35 36 37 37 36 33 33 35 34 27 28 29 29 25 22 21 20 19 17 14 14 16 18 17 18 17 16 15
9 7 17 11 10 7 10 6 15 8 15 11 7 6 6 9 13 18 26 30 33 34 36 36 35 36 33 31 31 27 25 26 27 25 23 22 20 19 17 16 16 15 16 17 17 16 16 16 15
8 7 2 10 9 9 16 16 10 8 4 4 6 7 8 14 19 25 26 28 29 30 32 34 34 34 34 33 30 28 29 27 27 27 25 22 20 19 18 16 16 16 16 16 16 16 15 14 14
11 16 6 6 6 5 15 13 4 4 2 1 7 9 10 16 21 22 24 26 27 28 29 30 31 32 31 29 28 25 22 21 21 23 20 19 18 17 16 15 15 15 16 15 15 15 14 14 13
16 12 4 5 8 8 6 10 3 2 2 2 6 8 12 16 19 23 24 26 27 27 27 28 28 28 27 25 25 22 21 20 19 17 18 17 16 15 14 14 14 13 13 13 13 12 12 12 11
4 4 4 4 2 7 7 5 3 4 7 8 10 10 10 14 18 22 25 27 28 29 28 28 27 27 26 26 25 23 20 19 18 18 17 16 16 15 15 14 13 13 13 12 12 11 10 10 10
3 2 3 3 6 4 5 2 3 7 9 8 8 10 12 14 16 20 24 25 27 28 28 28 28 30 30 27 23 21 19 18 17 17 17 16 15 14 14 14 13 13 13 12 11 10 10 9 9
1 2 1 2 3 2 5 3 2 6 10 10 9 10 13 18 20 21 23 24 25 26 27 28 28 28 25 22 19 17 17 18 18 18 17 16 15 14 13 13 13 12 12 12 11 10 9 8 7
15 8 6 3 4 3 2 3 6 6 11 13 14 14 15 18 21 23 25 25 28 31 30 29 26 22 19 17 17 17 18 19 20 19 18 16 16 16 14 14 14 14 13 13 12 10 8 5 4
Wind_Direction
176 166 157 150 204 236 232 226 239 176 200 211 183 200 203 224 191 187 203 181 175 171 167 165 163 162 169 172 171 167 162 162 162 155 150 146 139 134 129 122 125 122 123 118 115 116 119 119 114
181 163 155 191 239 218 223 224 210 199 144 180 187 205 213 222 218 293 121 175 166 165 164 162 166 166 172 174 172 168 164 163 161 154 149 146 141 133 124 122 101 108 129 126 113 110 114 115 115
176 166 179 212 233 231 243 204 223 199 166 167 180 205 199 203 246 186 199 174 165 164 161 168 168 169 174 173 172 170 167 164 161 161 152 150 148 140 135 131 112 128 112 115 120 115 115 115 114
169 174 193 233 229 226 231 165 157 200 193 202 192 182 206 214 196 200 187 170 167 163 160 166 169 173 175 174 173 172 170 168 163 160 156 153 153 148 145 139 129 139 131 128 115 122 121 110 110
169 195 213 226 238 229 221 139 147 161 176 196 195 183 216 212 208 195 177 167 163 161 164 168 170 174 174 174 173 172 170 166 162 160 155 159 162 156 157 127 126 126 132 132 128 120 111 110 105
175 219 220 221 231 232 220 214 226 213 168 154 190 201 208 204 190 181 173 164 166 159 165 168 169 174 172 174 170 168 166 160 156 155 151 144 152 153 142 124 120 128 137 137 135 127 118 112 108
214 209 227 236 237 237 204 212 216 212 201 201 181 210 183 187 180 174 167 164 166 164 163 166 166 165 169 168 165 161 159 159 157 154 152 152 151 150 153 143 129 138 136 140 141 146 142 123 117
212 235 232 225 230 241 208 194 222 226 232 217 205 229 202 195 182 174 173 166 166 167 168 161 164 162 160 162 167 165 161 161 159 156 148 148 151 157 151 151 149 133 143 141 142 153 160 134 133
199 225 223 211 230 226 180 197 191 219 208 197 195 217 207 185 181 177 175 170 171 170 173 167 164 162 163 172 168 161 156 150 149 144 150 159 163 166 167 163 165 164 162 163 156 140 165 161 156
200 219 221 215 234 221 191 200 187 187 196 203 202 216 207 188 179 178 179 175 176 177 178 177 177 178 180 173 169 168 167 172 176 174 172 195 191 191 192 187 180 185 182 161 149 146 152 161 165
216 226 217 218 226 222 206 205 179 187 194 208 207 200 202 191 183 179 183 183 180 184 178 181 183 184 185 182 175 179 179 184 182 188 189 188 198 199 202 198 187 187 192 177 166 171 172 174 178
230 221 233 228 225 214 206 209 206 211 213 200 179 194 198 193 195 187 184 189 187 185 185 181 188 190 188 189 188 187 198 192 199 195 180 194 192 190 202 202 200 191 189 185 176 173 168 168 176
218 225 224 228 222 217 221 217 214 209 211 181 178 182 195 189 189 190 191 193 193 193 188 191 192 193 192 193 193 195 197 196 188 193 178 193 210 223 208 206 200 187 179 175 177 177 174 176 174
184 222 231 226 225 221 223 224 213 216 211 206 204 196 194 191 192 187 194 195 196 197 200 197 191 203 198 200 198 199 196 189 188 195 195 173 202 235 254 218 204 191 180 174 175 179 179 180 176
236 221 231 229 227 219 220 241 227 227 223 217 206 211 208 199 191 207 200 195 197 195 199 203 186 196 201 203 202 203 207 201 201 196 182 184 189 229 256 232 214 198 189 180 177 177 181 183 180
218 231 233 206 220 206 186 246 221 224 223 218 219 215 210 213 226 208 197 197 199 200 203 198 206 210 200 194 209 215 217 204 195 182 190 185 182 191 238 228 215 206 194 189 184 180 183 186 189
199 223 225 228 203 207 211 244 233 205 222 232 230 232 227 220 215 201 194 193 199 201 202 203 204 209 216 207 190 204 201 199 181 187 186 190 175 177 223 239 222 209 196 193 188 186 181 185 192
208 221 225 217 206 214 215 233 227 221 224 222 221 221 216 204 204 201 197 195 200 202 205 205 203 193 198 217 212 191 188 190 185 183 188 188 176 209 220 236 226 213 204 195 191 190 184 186 188
226 224 229 212 199 208 223 228 222 196 201 202 200 206 209 209 199 204 197 200 199 202 204 205 206 202 199 195 204 202 186 194 185 177 177 182 188 182 199 228 220 213 207 200 191 190 195 183 179
229 230 225 197 193 212 220 228 223 205 203 193 186 184 193 194 202 201 196 201 204 202 204 206 206 210 212 215 204 193 186 187 186 174 177 177 177 190 188 223 219 212 214 202 201 195 195 196 190
205 216 209 204 182 213 214 228 216 201 188 166 183 194 197 194 189 193 189 202 204 205 205 207 206 206 207 205 193 190 193 181 185 181 180 180 180 182 190 195 210 217 210 208 201 201 199 203 200
230 172 165 152 164 194 204 227 207 193 192 194 192 197 200 195 186 186 184 195 204 204 204 205 206 206 202 209 203 184 191 189 187 187 181 184 183 183 186 192 204 206 208 205 200 202 201 201 209
246 241 207 175 190 178 205 227 232 162 212 202 180 185 176 183 179 176 184 197 200 200 199 201 199 194 195 197 195 205 204 193 189 186 186 184 184 184 186 190 192 201 208 207 202 204 207 208 210
140 130 259 227 204 214 206 210 213 190 205 142 174 167 161 164 172 178 184 189 189 194 194 195 194 193 196 195 194 199 197 192 195 191 183 181 184 186 188 192 194 200 206 208 211 208 210 213 213
158 154 164 180 197 216 203 202 101 116 65 160 162 157 157 161 169 169 170 178 184 186 188 189 189 189 188 188 189 188 192 192 190 186 182 183 185 185 189 191 199 199 203 208 210 215 213 217 221
177 182 211 170 178 162 177 207 148 4 326 184 128 138 156 164 168 170 170 173 175 177 180 181 180 181 177 176 173 170 170 170 169 173 175 178 180 185 191 193 197 197 202 203 205 205 208 208 206
147 212 96 104 358 167 170 110 119 108 117 129 130 120 114 152 165 170 169 171 170 169 169 170 168 164 160 158 159 159 161 164 167 168 174 181 184 188 190 189 190 192 192 191 192 192 193 193 192
261 79 170 203 169 156 164 202 100 171 152 140 132 114 114 133 150 161 167 167 163 163 161 159 158 154 153 154 153 155 158 165 171 176 180 182 183 184 183 183 181 184 183 182 180 181 180 179 180
52 120 348 30 345 185 151 133 70 171 166 150 135 120 116 120 129 141 147 150 149 148 147 147 149 150 151 154 155 160 164 169 173 175 175 177 177 179 179 179 179 177 174 170 167 165 162 158 160
62 23 5 285 137 54 356 111 351 200 154 144 136 126 119 120 122 128 132 138 142 143 143 142 140 139 136 142 155 164 170 171 171 170 172 173 176 174 175 172 170 167 162 157 151 150 150 159 180
Height
1506 1508 1510 1514 1516 1508 1494 1492 1495 1494 1497 1496 1497 1498 1497 1495 1496 1500 1498 1499 1502 1507 1511 1515 1519 1521 1525 1528 1532 1534 1536 1538 1540 1542 1544 1546 1548 1549 1551 1553 1554 1555 1555 1557 1559 1560 1561 1560 1561
1505 1508 1512 1512 1504 1498 1485 1486 1491 1489 1493 1495 1498 1499 1498 1496 1497 1498 1499 1499 1503 1508 1512 1516 1520 1522 1525 1529 1533 1536 1538 1539 1542 1543 1545 1547 1549 1551 1553 1555 1556 1557 1557 1557 1558 1562 1564 1564 1564
1504 1507 1510 1504 1493 1485 1480 1486 1483 1489 1493 1494 1495 1497 1498 1495 1495 1497 1497 1499 1504 1508 1513 1517 1520 1523 1527 1529 1533 1536 1538 1540 1542 1545 1547 1548 1550 1552 1555 1556 1558 1558 1558 1559 1562 1562 1566 1566 1566
1503 1508 1508 1497 1484 1481 1485 1484 1488 1490 1493 1494 1494 1493 1495 1493 1494 1494 1497 1499 1505 1508 1513 1517 1521 1524 1528 1530 1534 1536 1539 1541 1543 1546 1547 1550 1551 1554 1556 1558 1559 1560 1560 1563 1565 1566 1567 1568 1568
1501 1501 1493 1491 1480 1477 1487 1486 1487 1487 1488 1491 1493 1490 1493 1491 1492 1493 1496 1500 1505 1510 1514 1518 1521 1525 1528 1531 1534 1536 1539 1541 1544 1546 1549 1551 1552 1555 1557 1559 1559 1560 1562 1564 1566 1568 1570 1570 1571
1496 1493 1486 1481 1474 1471 1484 1485 1487 1487 1488 1490 1492 1492 1491 1490 1491 1493 1496 1501 1507 1510 1515 1518 1522 1526 1528 1532 1535 1537 1540 1543 1545 1547 1549 1552 1553 1556 1558 1560 1561 1563 1565 1566 1567 1569 1571 1572 1574
1485 1484 1474 1472 1472 1467 1478 1483 1484 1482 1484 1486 1488 1487 1489 1489 1490 1492 1496 1502 1506 1511 1515 1519 1522 1526 1530 1533 1536 1538 1540 1542 1543 1546 1547 1550 1552 1556 1558 1561 1564 1565 1567 1568 1569 1571 1572 1573 1576
1484 1481 1472 1472 1471 1461 1471 1479 1479 1480 1478 1483 1486 1482 1484 1487 1489 1491 1495 1501 1506 1510 1514 1518 1522 1526 1531 1533 1534 1537 1540 1543 1546 1549 1551 1553 1556 1557 1559 1562 1564 1566 1568 1569 1571 1571 1573 1575 1577
1481 1473 1465 1470 1464 1460 1470 1473 1476 1476 1479 1480 1480 1481 1481 1483 1486 1490 1493 1499 1504 1509 1512 1516 1521 1525 1529 1530 1534 1538 1542 1546 1548 1551 1554 1556 1557 1559 1561 1563 1564 1565 1567 1568 1570 1573 1576 1577 1578
1469 1461 1456 1456 1457 1459 1466 1469 1471 1474 1475 1477 1478 1477 1479 1480 1483 1487 1490 1494 1500 1505 1510 1514 1517 1521 1524 1529 1535 1538 1542 1546 1549 1551 1554 1557 1559 1560 1562 1564 1566 1568 1569 1571 1573 1574 1576 1578 1579
1457 1445 1449 1451 1455 1459 1461 1466 1466 1467 1470 1469 1472 1475 1477 1480 1483 1487 1492 1498 1498 1501 1505 1511 1516 1520 1525 1529 1534 1538 1542 1545 1548 1552 1555 1557 1559 1560 1562 1564 1567 1568 1569 1571 1573 1575 1576 1578 1580
1447 1448 1450 1452 1458 1459 1457 1460 1462 1463 1464 1468 1470 1471 1474 1476 1480 1484 1490 1493 1498 1501 1504 1507 1513 1518 1523 1528 1533 1537 1541 1544 1548 1551 1554 1557 1559 1561 1562 1564 1566 1568 1570 1571 1572 1575 1576 1578 1580
1445 1442 1449 1450 1455 1456 1457 1457 1457 1460 1463 1465 1467 1469 1471 1474 1478 1482 1488 1491 1496 1500 1503 1508 1511 1516 1522 1527 1531 1536 1539 1543 1546 1550 1552 1556 1558 1560 1562 1564 1565 1568 1569 1571 1573 1574 1576 1578 1581
1439 1446 1447 1449 1450 1453 1455 1454 1455 1456 1460 1462 1463 1466 1469 1470 1474 1479 1482 1487 1494 1498 1502 1506 1508 1515 1520 1525 1529 1533 1537 1540 1543 1548 1551 1553 1556 1559 1562 1564 1565 1567 1569 1571 1573 1574 1576 1578 1581
1440 1441 1443 1442 1447 1447 1453 1446 1444 1453 1455 1458 1460 1463 1466 1468 1472 1473 1477 1483 1489 1495 1500 1505 1508 1511 1518 1522 1527 1531 1535 1540 1543 1545 1548 1552 1555 1558 1561 1564 1565 1566 1568 1570 1572 1574 1576 1579 1581
1436 1439 1434 1435 1442 1444 1447 1420 1440 1448 1450 1452 1455 1459 1462 1464 1467 1472 1477 1481 1486 1491 1496 1503 1506 1511 1515 1519 1524 1529 1532 1536 1540 1543 1547 1550 1553 1556 1560 1562 1563 1565 1567 1569 1571 1573 1575 1578 1580
1426 1420 1430 1427 1434 1438 1438 1426 1432 1439 1443 1445 1448 1452 1457 1460 1463 1467 1471 1477 1481 1487 1492 1498 1503 1507 1513 1516 1522 1527 1531 1535 1537 1541 1545 1549 1552 1555 1559 1562 1563 1564 1566 1568 1570 1572 1575 1576 1578
1410 1417 1413 1419 1423 1430 1430 1427 1429 1433 1437 1438 1442 1446 1451 1455 1457 1462 1466 1471 1477 1484 1489 1495 1499 1504 1507 1513 1519 1524 1527 1532 1535 1539 1543 1547 1549 1553 1557 1560 1562 1564 1565 1567 1569 1571 1573 1575 1577
1403 1407 1409 1414 1418 1423 1420 1422 1426 1434 1435 1436 1440 1444 1447 1453 1455 1458 1463 1467 1471 1479 1486 1491 1496 1500 1505 1509 1514 1519 1523 1529 1532 1536 1541 1545 1548 1550 1555 1559 1560 1563 1564 1566 1568 1569 1573 1574 1575
1407 1406 1408 1414 1418 1420 1415 1416 1420 1427 1433 1435 1437 1440 1444 1447 1449 1454 1459 1464 1469 1474 1481 1487 1492 1498 1504 1508 1512 1514 1521 1526 1530 1533 1538 1542 1544 1550 1552 1556 1559 1561 1564 1565 1567 1569 1571 1573 1576
1406 1402 1402 1407 1415 1418 1416 1417 1419 1428 1435 1436 1438 1439 1441 1444 1447 1450 1456 1460 1465 1471 1477 1483 1489 1494 1500 1505 1509 1514 1517 1521 1527 1532 1536 1538 1543 1547 1551 1554 1557 1560 1562 1565 1566 1568 1571 1572 1574
1399 1408 1416 1418 1414 1412 1413 1403 1404 1416 1425 1433 1437 1438 1439 1441 1445 1448 1453 1456 1462 1468 1475 1481 1486 1492 1497 1503 1508 1512 1514 1520 1524 1530 1533 1536 1541 1544 1548 1551 1555 1559 1561 1563 1565 1567 1569 1571 1574
1397 1397 1406 1414 1415 1414 1418 1413 1399 1416 1419 1427 1435 1438 1439 1441 1443 1446 1451 1454 1459 1465 1471 1477 1483 1489 1494 1501 1505 1508 1513 1518 1523 1527 1531 1535 1540 1543 1547 1550 1553 1557 1560 1562 1564 1566 1567 1569 1571
1396 1405 1409 1407 1413 1410 1396 1403 1391 1407 1417 1432 1436 1438 1439 1440 1442 1445 1448 1452 1458 1464 1470 1475 1480 1486 1492 1497 1503 1508 1512 1517 1521 1525 1530 1534 1539 1542 1546 1549 1552 1556 1559 1561 1563 1564 1566 1568 1569
1402 1404 1407 1410 1409 1394 1388 1403 1397 1427 1434 1434 1435 1438 1440 1441 1443 1445 1448 1452 1458 1463 1468 1473 1479 1484 1489 1495 1501 1506 1511 1516 1521 1525 1528 1533 1538 1541 1546 1547 1551 1554 1557 1559 1561 1564 1565 1566 1568
1396 1393 1387 1383 1387 1389 1405 1402 1405 1436 1437 1438 1439 1440 1441 1442 1444 1446 1450 1453 1457 1462 1468 1473 1478 1483 1488 1494 1500 1505 1511 1516 1521 1525 1530 1534 1538 1541 1544 1546 1550 1553 1555 1558 1560 1562 1564 1565 1567
1398 1394 1402 1401 1405 1383 1394 1418 1435 1437 1437 1439 1440 1442 1442 1443 1445 1448 1451 1454 1458 1462 1467 1472 1477 1482 1488 1494 1500 1505 1512 1516 1520 1525 1530 1534 1537 1540 1543 1546 1549 1552 1555 1557 1558 1561 1563 1565 1566
1400 1399 1397 1393 1388 1383 1395 1402 1401 1434 1436 1440 1442 1443 1444 1445 1447 1449 1452 1455 1459 1462 1467 1473 1479 1483 1489 1494 1500 1506 1512 1517 1521 1525 1529 1533 1536 1540 1542 1546 1549 1551 1554 1556 1558 1560 1562 1564 1566
1399 1397 1398 1395 1396 1375 1382 1395 1431 1432 1436 1439 1444 1446 1446 1447 1449 1452 1454 1457 1460 1464 1469 1474 1480 1485 1491 1496 1501 1506 1511 1517 1521 1525 1529 1533 1537 1540 1543 1546 1549 1552 1554 1556 1558 1561 1563 1565 1566
1417 1418 1413 1394 1401 1401 1390 1409 1435 1434 1436 1441 1445 1448 1450 1451 1453 1455 1457 1460 1463 1467 1473 1478 1482 1487 1493 1499 1504 1509 1513 1517 1521 1525 1529 1533 1537 1540 1543 1546 1549 1552 1554 1556 1559 1561 1563 1565 1567